Location: Carnetin
(48.9010°N, 2.7059°E)
Time: 19:25:22
(UTC+00:00)

Cosmos 1825 - Pass Details

Date: 04 June 2022
Orbit: 496 x 499 km, 82.5° (Epoch: 24 June)

Event Time Altitude Azimuth Distance (km) Brightness Sun altitude
Exits shadow 01:52:58 - 150° (SSE) 2,123 5.0 -13.4°
Reaches altitude 10° 01:54:12 10° 140° (SE) 1,695 4.6 -13.3°
Maximum altitude 01:57:06 22° 89° (E) 1,131 4.3 -13.0°
Drops below altitude 10° 02:00:01 10° 37° (NE) 1,708 6.3 -12.8°
Sets 02:02:28 0° 22° (NNE) 2,598 7.7 -12.6°
